[Iaude] MPEC F65: 2024 FB2 [a=2.43,e=0.50,i=30.1,H=19.6]
    mpec at cfa.harvard.edu 
    mpec at cfa.harvard.edu
       
    Thu Mar 21 18:28:13 EDT 2024
    
    
  
M.P.E.C. 2024-F65                                Issued 2024 March 21, 22:26 UT
     The Minor Planet Electronic Circulars contain information on unusual
         minor planets, routine data on comets and natural satellites,
         and occasional editorial announcements.  They are published
    on behalf of Division F of the International Astronomical Union by the
          Minor Planet Center, Smithsonian Astrophysical Observatory,
                          Cambridge, MA 02138, U.S.A.
			  
             Prepared using the Tamkin Foundation Computer Network
                              MPC at CFA.HARVARD.EDU
            URL https://www.minorplanetcenter.net/    ISSN 1523-6714
                                    2024 FB2                                    
Observations:
     K24F02B 1C2024 03 05.33134 11 29 52.11 +01 26 45.7                VEF065G96
     K24F02B 1C2024 03 05.33869 11 29 51.35 +01 26 42.1          22.0 GVEF065G96
     K24F02B 1C2024 03 05.34390 11 29 50.86 +01 26 40.6                VEF065G96
     K24F02B* C2024 03 17.42842911 07 12.556+00 15 29.89         21.96wXEF065F51
     K24F02B  C2024 03 17.44058311 07 11.111+00 15 25.54         21.83wXEF065F51
     K24F02B  C2024 03 17.45271511 07 09.641+00 15 21.10         22.10wXEF065F51
     K24F02B  C2024 03 17.46483811 07 08.183+00 15 16.66         21.73wXEF065F51
     K24F02B  C2024 03 17.53016611 07 00.379+00 14 52.70         21.82GVEF065F51
     K24F02B  C2024 03 17.53098511 07 00.270+00 14 52.53         21.75GVEF065F51
     K24F02B |C2024 03 19.10092011 03 56.830+00 05 24.40         21.1 GVEF065807
     K24F02B |C2024 03 19.11192011 03 55.510+00 05 21.20         20.9 GVEF065807
     K24F02B |C2024 03 19.12292011 03 54.210+00 05 17.20         21.4 GVEF065807
     K24F02B DC2024 03 20.28468 11 01 37.92 -00 01 59.5          22.3 GVEF065695
     K24F02B DC2024 03 20.29950 11 01 36.15 -00 02 05.4          22.4 GVEF065695
     K24F02B DC2024 03 20.31433 11 01 34.38 -00 02 10.1          22.2 GVEF065695
Observer details:
695 Kitt Peak.  Observer J. V. Scotti.  Measurers J. V. Scotti, J. V. Scotti.
    2.3-m f/9 reflector + CCD.
807 Cerro Tololo Observatory, La Serena.  Observers T. Linder, R. Holmes.
    Measurers T. Linder, R. Holmes, T. Linder, R. Holmes.  0.61-m f/6.8
    Ritchey-Chretien + CCD.
F51 Pan-STARRS 1, Haleakala.  Observers J. Herman, T. Lowe, P. Minguez, A.
    Schultz, I. Smith.  Measurers K. Chambers, T. de Boer, J. Fairlamb, H.
    Gao, M. Huber, C.-C. Lin, E. Magnier, Y. Ramanjooloo, R. Wainscoat, R.
    Weryk, J. Herman, T. Lowe, P. Minguez, A. Schultz, I. Smith.  1.8-m
    Ritchey-Chretien + CCD.
G96 Mt. Lemmon Survey.  Observer G. J. Leonard.  Measurers B. Gray, D. Rankin,
    F. C. Shelly, G. J. Leonard.  1.5-m reflector + 10K CCD.
Orbital elements:
2024 FB2                                                 Earth MOID = 0.4165 AU
Epoch 2024 Mar. 31.0 TT = JDT 2460400.5                 MPC                     
M 315.88186              (2000.0)            P               Q                  
n   0.26095932     Peri.  291.22406     +0.17880191     +0.97788321             
a   2.4252370      Node   347.49692     -0.60857271     +0.02326340             
e   0.4960630      Incl.   30.08055     -0.77309064     +0.20785392             
P   3.78           H   19.66          G   0.15           U   9                  
Residuals in seconds of arc
240305 G96  0.7-  0.6+    240317 F51  0.1+  0.1+    240319 807  0.3-  0.2+
240305 G96  0.2-  0.5-    240317 F51  0.0   0.1+    240319 807  0.0   0.3+
240305 G96  0.8+  0.2-    240317 F51  0.2+  0.1-    240320 695  0.0   0.2-
240317 F51  0.1+  0.1+    240317 F51  0.0   0.1+    240320 695  0.1+  0.6-
240317 F51  0.3+  0.2+    240319 807  0.2-  0.6-    240320 695  0.2+  0.2+
Ephemeris:
2024 FB2                 a,e,i = 2.43, 0.50, 30                  q = 1.2222
Date    TT    R. A. (2000) Decl.     Delta      r    Elong.  Phase     V
2024 02 20    11 51 20.4 +02 48 09   1.3454  2.2735   153.5    11.2    22.8
...
2024 03 06    11 28 41.8 +01 22 58   1.1972  2.1853   173.1     3.1    22.1
...
2024 03 14    11 13 51.6 +00 36 09   1.1460  2.1373   174.0     2.8    21.9
...
2024 03 20    11 02 11.4 -00 00 10   1.1209  2.1009   166.0     6.6    22.0
2024 03 21    11 00 14.3 -00 06 20   1.1178  2.0948   164.6     7.3    22.0
2024 03 22    10 58 17.5 -00 12 32   1.1150  2.0887   163.2     7.9    22.1
...
2024 03 28    10 46 49.7 -00 50 32   1.1044  2.0519   154.8    12.0    22.2
...
2024 04 05    10 32 42.9 -01 43 18   1.1056  2.0024   143.9    17.1    22.3
...
2024 04 20    10 12 35.5 -03 30 45   1.1445  1.9086   125.1    25.5    22.5
A. U. Tomatic                (C) Copyright 2024 MPC           M.P.E.C. 2024-F65
    
    
More information about the Iaude
mailing list